Tiempo atmosférico en la estación meteorológica de O Páramo, Lugo (403 m.)



Fecha
DESCASC
Temp. máxima en grados centígrados (hora)
DESCASC
Temp. mínima en grados centígrados (hora)
DESCASC
Temp. media en grados centígrados
DESCASC
Racha de viento máxima en m/sg (hora)
DESCASC
Velocidad máxima media en intervalos de 10 minutos(hora)
DESCASC
Precipitaciones diarias en mm
DESCASC
Precipitaciones de 00:00 a 06:00 en mm
DESCASC
Precipitaciones de 06:00 a 12:00 en mm
DESCASC
Precipitaciones de 12:00 a 18:00 en mm
DESCASC
Precipitaciones de 18:00 a 24:00 en mm
DESCASC
15-01-2021 5.3 (00:00) 2.6 (00:00) 4 -- (--) -- (--) 0.4 0.2 0.2 0 0
14-01-2021 6.4 (17:20) -3.3 (00:30) 1.6 -- (--) -- (--) 1.4 0 0 0 1.4
13-01-2021 8.4 (17:30) -4.6 (-00:0) 1.9 -- (--) -- (--) 0 0 0 0 0
12-01-2021 8.9 (16:20) -5.7 (-00:0) 1.6 -- (--) -- (--) 0 0 0 0 0
11-01-2021 9.9 (15:40) -1.8 (-00:0) 4 -- (--) -- (--) 0 0 0 0 0
10-01-2021 7.8 (13:50) 2.1 (21:10) 5 -- (--) -- (--) 0 0 0 0 0
09-01-2021 5.1 (15:40) -2.9 (-00:0) 1.1 -- (--) -- (--) 0 0 0 0 0
08-01-2021 7.1 (15:00) -2.6 (-00:0) 2.3 -- (--) -- (--) 0 0 0 0 0
07-01-2021 1.4 (16:20) -2.5 (-00:0) -0.6 -- (--) -- (--) 0 0 0 0 0
06-01-2021 3.7 (15:50) -1.2 (-00:0) 1.3 -- (--) -- (--) 0.2 0 0 0.2 0
05-01-2021 3.9 (16:20) -1.1 (-00:0) 1.4 -- (--) -- (--) 0 0 0 0 0
04-01-2021 5.1 (15:50) -1.1 (-00:0) 2 -- (--) -- (--) 0.2 0.2 0 0 0
03-01-2021 6.3 (13:30) -0.2 (00:00) 3.1 -- (--) -- (--) 1.4 0.2 0.2 0.8 0.2
02-01-2021 5.8 (15:40) -0.8 (-00:0) 2.5 -- (--) -- (--) 0 0 0 0 0
01-01-2021 4 (14:10) -0.1 (00:00) 1.9 -- (--) -- (--) 7.4 1 1.8 3.8 0.8
31-12-2020 8.6 (14:30) 2.8 (00:00) 5.7 -- (--) -- (--) 7.4 2 3 1.4 1
30-12-2020 7.9 (16:40) 0.7 (00:00) 4.3 -- (--) -- (--) 0.6 0.2 0 0 0.4
29-12-2020 5.4 (12:00) 1.7 (00:00) 3.6 -- (--) -- (--) 13.8 5.4 4.8 2.8 0.8
28-12-2020 7 (13:20) 3.4 (00:00) 5.2 -- (--) -- (--) 22 2 5.4 8.8 5.8
27-12-2020 10.1 (20:40) -3.3 (-00:0) 3.4 -- (--) -- (--) 4.2 0 0 0 4.2
26-12-2020 8.6 (15:30) -4.5 (-00:0) 2.1 -- (--) -- (--) 0 0 0 0 0
25-12-2020 8.7 (14:20) 0.7 (00:00) 4.7 -- (--) -- (--) 0.2 0 0 0.2 0
24-12-2020 7.3 (15:40) -0.1 (00:00) 3.6 -- (--) -- (--) 0.2 0.2 0 0 0
23-12-2020 13.1 (00:00) 2.8 (00:00) 8 -- (--) -- (--) 4.2 0.6 3.6 0 0
22-12-2020 17.3 (15:00) 12.2 (00:00) 14.7 -- (--) -- (--) 0 0 0 0 0
21-12-2020 16.7 (15:20) 11.3 (00:00) 14 -- (--) -- (--) 0.2 0.2 0 0 0
20-12-2020 13.1 (13:40) 3 (00:00) 8.1 -- (--) -- (--) 1.4 0 0 0.6 0.8
19-12-2020 12.8 (15:30) 3.6 (00:00) 8.2 -- (--) -- (--) 4.4 3.4 1 0 0
18-12-2020 13.8 (14:40) 8.1 (00:00) 11 -- (--) -- (--) 5.6 0 0 0.2 5.4
17-12-2020 10.8 (16:50) 0.4 (00:00) 5.6 -- (--) -- (--) 0.2 0 0.2 0 0

Gráficas

Temp. máximas Temp. mínimas Temp. medias Precipitaciones Rachas de viento máximas Velocidades máximas media en intervalos de 10 minutos

Datos horarios

Fecha y hora oficial Temperatura (ºC) Velocidad del viento (km/h) Dirección del viento Racha (km/h) Dirección de racha Precipitación (mm) Presión (hPa) Tendencia (hPa) Humedad (%)
2021-01-15 23:00:00 2.8 -- -- -- -- 0 -- -- 97
2021-01-15 22:00:00 3.2 -- -- -- -- 0 -- -- 97
2021-01-15 21:00:00 3.5 -- -- -- -- 0 -- -- 96
2021-01-15 20:00:00 3.8 -- -- -- -- 0 -- -- 96
2021-01-15 19:00:00 4 -- -- -- -- 0 -- -- 96
2021-01-15 18:00:00 4.6 -- -- -- -- 0 -- -- 95
2021-01-15 17:00:00 4.8 -- -- -- -- 0 -- -- 95
2021-01-15 16:00:00 4.9 -- -- -- -- 0 -- -- 94
2021-01-15 15:00:00 5 -- -- -- -- 0 -- -- 96
2021-01-15 14:00:00 4.6 -- -- -- -- 0 -- -- 98
2021-01-15 13:00:00 4.2 -- -- -- -- 0 -- -- 100
2021-01-15 12:00:00 4.1 -- -- -- -- 0 -- -- 100
2021-01-15 11:00:00 3.8 -- -- -- -- 0 -- -- 100
2021-01-15 10:00:00 3.9 -- -- -- -- 0.2 -- -- 100
2021-01-15 09:00:00 4.4 -- -- -- -- 0 -- -- 100
2021-01-15 08:00:00 4.5 -- -- -- -- 0 -- -- 100
2021-01-15 07:00:00 4.5 -- -- -- -- 0 -- -- 100
2021-01-15 06:00:00 4.9 -- -- -- -- 0 -- -- 100
2021-01-15 05:00:00 5.1 -- -- -- -- 0.2 -- -- 100
2021-01-15 04:00:00 5.1 -- -- -- -- 0 -- -- 100
2021-01-15 03:00:00 5.2 -- -- -- -- 0 -- -- 100
2021-01-15 02:00:00 5.2 -- -- -- -- 0 -- -- 99
2021-01-15 01:00:00 5.3 -- -- -- -- 0 -- -- 99
2021-01-15 00:00:00 5.3 -- -- -- -- 0.8 -- -- 99
2021-01-14 23:00:00 5.3 -- -- -- -- 0.6 -- -- 98
2021-01-14 22:00:00 5.5 -- -- -- -- 0 -- -- 97
2021-01-14 21:00:00 5.7 -- -- -- -- 0 -- -- 95
2021-01-14 20:00:00 5.8 -- -- -- -- 0 -- -- 93
2021-01-14 19:00:00 6 -- -- -- -- 0 -- -- 92
2021-01-14 18:00:00 6.3 -- -- -- -- 0 -- -- 91
2021-01-14 17:00:00 6.3 -- -- -- -- 0 -- -- 91
2021-01-14 16:00:00 5.9 -- -- -- -- 0 -- -- 93
2021-01-14 15:00:00 5.4 -- -- -- -- 0 -- -- 93
2021-01-14 14:00:00 4.9 -- -- -- -- 0 -- -- 94
2021-01-14 13:00:00 4 -- -- -- -- 0 -- -- 95
2021-01-14 12:00:00 2.9 -- -- -- -- 0 -- -- 99
2021-01-14 11:00:00 1.8 -- -- -- -- 0 -- -- 100
2021-01-14 10:00:00 0.1 -- -- -- -- 0 -- -- 100
2021-01-14 09:00:00 -0.4 -- -- -- -- 0 -- -- 99
2021-01-14 08:00:00 -0.8 -- -- -- -- 0 -- -- 99
2021-01-14 07:00:00 -0.9 -- -- -- -- 0 -- -- 99
2021-01-14 06:00:00 -1.1 -- -- -- -- 0 -- -- 99
2021-01-14 05:00:00 -1.3 -- -- -- -- 0 -- -- 99
2021-01-14 04:00:00 -1.5 -- -- -- -- 0 -- -- 98
2021-01-14 03:00:00 -1.9 -- -- -- -- 0 -- -- 99
2021-01-14 02:00:00 -2.4 -- -- -- -- 0 -- -- 98
2021-01-14 01:00:00 -3.1 -- -- -- -- 0 -- -- 97
2021-01-14 00:00:00 -2.8 -- -- -- -- 0 -- -- 96
2021-01-13 23:00:00 -2.2 -- -- -- -- 0 -- -- 94
2021-01-13 22:00:00 -1.3 -- -- -- -- 0 -- -- 93
2021-01-13 21:00:00 -0.4 -- -- -- -- 0 -- -- 90
2021-01-13 20:00:00 1.3 -- -- -- -- 0 -- -- 83
2021-01-13 19:00:00 3.6 -- -- -- -- 0 -- -- 78
2021-01-13 18:00:00 7.2 -- -- -- -- 0 -- -- 63
2021-01-13 17:00:00 8.1 -- -- -- -- 0 -- -- 63
2021-01-13 16:00:00 7 -- -- -- -- 0 -- -- 68
2021-01-13 15:00:00 4 -- -- -- -- 0 -- -- 87
2021-01-13 14:00:00 0.2 -- -- -- -- 0 -- -- 100
2021-01-13 13:00:00 -2.1 -- -- -- -- 0 -- -- 99
2021-01-13 12:00:00 -3.3 -- -- -- -- 0 -- -- 99
2021-01-13 11:00:00 -4 -- -- -- -- 0 -- -- 99
2021-01-13 10:00:00 -4.3 -- -- -- -- 0 -- -- 99
2021-01-13 09:00:00 -4.4 -- -- -- -- 0 -- -- 99
2021-01-13 08:00:00 -4.4 -- -- -- -- 0 -- -- 99
2021-01-13 07:00:00 -4.5 -- -- -- -- 0 -- -- 98
2021-01-13 06:00:00 -4.6 -- -- -- -- 0 -- -- 98
2021-01-13 05:00:00 -4.5 -- -- -- -- 0 -- -- 98
2021-01-13 04:00:00 -4.5 -- -- -- -- 0 -- -- 97
2021-01-13 03:00:00 -4.2 -- -- -- -- 0 -- -- 96
2021-01-13 02:00:00 -3.8 -- -- -- -- 0 -- -- 96
2021-01-13 01:00:00 -3.2 -- -- -- -- 0 -- -- 95
2021-01-13 00:00:00 -2.4 -- -- -- -- 0 -- -- 95
2021-01-12 23:00:00 -1.9 -- -- -- -- 0 -- -- 92
2021-01-12 22:00:00 -0.9 -- -- -- -- 0 -- -- 91
2021-01-12 21:00:00 0.1 -- -- -- -- 0 -- -- 88
2021-01-12 20:00:00 1.5 -- -- -- -- 0 -- -- 83
2021-01-12 19:00:00 3.7 -- -- -- -- 0 -- -- 74
2021-01-12 18:00:00 7.6 -- -- -- -- 0 -- -- 62
2021-01-12 17:00:00 8.7 -- -- -- -- 0 -- -- 56
2021-01-12 16:00:00 8.7 -- -- -- -- 0 -- -- 59
2021-01-12 15:00:00 7.7 -- -- -- -- 0 -- -- 64
2021-01-12 14:00:00 5.1 -- -- -- -- 0 -- -- 75
2021-01-12 13:00:00 1.9 -- -- -- -- 0 -- -- 87
2021-01-12 12:00:00 -1.8 -- -- -- -- 0 -- -- 99
2021-01-12 11:00:00 -4.4 -- -- -- -- 0 -- -- 98
2021-01-12 10:00:00 -5.3 -- -- -- -- 0 -- -- 98
2021-01-12 09:00:00 -5.6 -- -- -- -- 0 -- -- 97
2021-01-12 08:00:00 -4.7 -- -- -- -- 0 -- -- 97
2021-01-12 07:00:00 -5.4 -- -- -- -- 0 -- -- 96
2021-01-12 06:00:00 -4.7 -- -- -- -- 0 -- -- 95
2021-01-12 05:00:00 -4.5 -- -- -- -- 0 -- -- 96
2021-01-12 04:00:00 -4.2 -- -- -- -- 0 -- -- 95
2021-01-12 03:00:00 -3.6 -- -- -- -- 0 -- -- 95
2021-01-12 02:00:00 -3.1 -- -- -- -- 0 -- -- 94
2021-01-12 01:00:00 -2.8 -- -- -- -- 0 -- -- 91
2021-01-12 00:00:00 -1.8 -- -- -- -- 0 -- -- 89
2021-01-11 23:00:00 -0.8 -- -- -- -- 0 -- -- 86
2021-01-11 22:00:00 0.3 -- -- -- -- 0 -- -- 82
2021-01-11 21:00:00 1.4 -- -- -- -- 0 -- -- 78
2021-01-11 20:00:00 2.9 -- -- -- -- 0 -- -- 73
2021-01-11 19:00:00 4.6 -- -- -- -- 0 -- -- 67
2021-01-11 18:00:00 7.1 -- -- -- -- 0 -- -- 57
2021-01-11 17:00:00 8.6 -- -- -- -- 0 -- -- 52
2021-01-11 16:00:00 9.3 -- -- -- -- 0 -- -- 49
2021-01-11 15:00:00 9.4 -- -- -- -- 0 -- -- 50
2021-01-11 14:00:00 9 -- -- -- -- 0 -- -- 54
2021-01-11 13:00:00 8.1 -- -- -- -- 0 -- -- 55
2021-01-11 12:00:00 5.7 -- -- -- -- 0 -- -- 64
2021-01-11 11:00:00 1.6 -- -- -- -- 0 -- -- 83
2021-01-11 10:00:00 -0.2 -- -- -- -- 0 -- -- 88
2021-01-11 09:00:00 -0.5 -- -- -- -- 0 -- -- 86
2021-01-11 08:00:00 0.4 -- -- -- -- 0 -- -- 85
2021-01-11 07:00:00 0.8 -- -- -- -- 0 -- -- 84
2021-01-11 06:00:00 0.7 -- -- -- -- 0 -- -- 85
2021-01-11 05:00:00 0 -- -- -- -- 0 -- -- 87
2021-01-11 04:00:00 -0.3 -- -- -- -- 0 -- -- 86
2021-01-11 03:00:00 0.1 -- -- -- -- 0 -- -- 83
2021-01-11 02:00:00 0.3 -- -- -- -- 0 -- -- 81
2021-01-11 01:00:00 1.6 -- -- -- -- 0 -- -- 75
2021-01-11 00:00:00 2.7 -- -- -- -- 0 -- -- 71
2021-01-10 23:00:00 2.4 -- -- -- -- 0 -- -- 71
2021-01-10 22:00:00 2.3 -- -- -- -- 0 -- -- 76
2021-01-10 21:00:00 2.2 -- -- -- -- 0 -- -- 72
2021-01-10 20:00:00 2.9 -- -- -- -- 0 -- -- 69
2021-01-10 19:00:00 3.6 -- -- -- -- 0 -- -- 67
2021-01-10 18:00:00 5.3 -- -- -- -- 0 -- -- 59
2021-01-10 17:00:00 6.4 -- -- -- -- 0 -- -- 55
2021-01-10 16:00:00 6.9 -- -- -- -- 0 -- -- 55
2021-01-10 15:00:00 7.2 -- -- -- -- 0 -- -- 56
2021-01-10 14:00:00 7.8 -- -- -- -- 0 -- -- 56
2021-01-10 13:00:00 7.2 -- -- -- -- 0 -- -- 55
2021-01-10 12:00:00 6.2 -- -- -- -- 0 -- -- 60
2021-01-10 11:00:00 4.2 -- -- -- -- 0 -- -- 77
2021-01-10 10:00:00 4.4 -- -- -- -- 0 -- -- 72
2021-01-10 09:00:00 4 -- -- -- -- 0 -- -- 72
2021-01-10 08:00:00 3.8 -- -- -- -- 0 -- -- 74
2021-01-10 07:00:00 3.7 -- -- -- -- 0 -- -- 80
2021-01-10 06:00:00 4 -- -- -- -- 0 -- -- 75
2021-01-10 05:00:00 3.8 -- -- -- -- 0 -- -- 81
2021-01-10 04:00:00 3.7 -- -- -- -- 0 -- -- 83
2021-01-10 03:00:00 3.9 -- -- -- -- 0 -- -- 77
2021-01-10 02:00:00 3.6 -- -- -- -- 0 -- -- 78
2021-01-10 01:00:00 3.3 -- -- -- -- 0 -- -- 79
2021-01-10 00:00:00 3.2 -- -- -- -- 0 -- -- 81
2021-01-09 23:00:00 3.1 -- -- -- -- 0 -- -- 83
2021-01-09 22:00:00 3.1 -- -- -- -- 0 -- -- 80
2021-01-09 21:00:00 2.8 -- -- -- -- 0 -- -- 84
2021-01-09 20:00:00 2.6 -- -- -- -- 0 -- -- 85
2021-01-09 19:00:00 2.6 -- -- -- -- 0 -- -- 82
2021-01-09 18:00:00 3.3 -- -- -- -- 0 -- -- 78
2021-01-09 17:00:00 4 -- -- -- -- 0 -- -- 74
2021-01-09 16:00:00 4.6 -- -- -- -- 0 -- -- 70
2021-01-09 15:00:00 4.9 -- -- -- -- 0 -- -- 66
2021-01-09 14:00:00 4.4 -- -- -- -- 0 -- -- 71
2021-01-09 13:00:00 3.7 -- -- -- -- 0 -- -- 75
2021-01-09 12:00:00 2.6 -- -- -- -- 0 -- -- 82
2021-01-09 11:00:00 0.6 -- -- -- -- 0 -- -- 84
2021-01-09 10:00:00 -1.1 -- -- -- -- 0 -- -- 87
2021-01-09 09:00:00 -2.1 -- -- -- -- 0 -- -- 86
2021-01-09 08:00:00 -2.1 -- -- -- -- 0 -- -- 86
2021-01-09 07:00:00 -2.5 -- -- -- -- 0 -- -- 87
2021-01-09 06:00:00 -2.5 -- -- -- -- 0 -- -- 88
2021-01-09 05:00:00 -1.8 -- -- -- -- 0 -- -- 85
2021-01-09 04:00:00 -2 -- -- -- -- 0 -- -- 86
2021-01-09 03:00:00 -1.5 -- -- -- -- 0 -- -- 84
2021-01-09 02:00:00 -1.5 -- -- -- -- 0 -- -- 87
2021-01-09 01:00:00 -1.6 -- -- -- -- 0 -- -- 89
2021-01-09 00:00:00 -1.3 -- -- -- -- 0 -- -- 89
2021-01-08 23:00:00 -1 -- -- -- -- 0 -- -- 89
2021-01-08 22:00:00 -0.4 -- -- -- -- 0 -- -- 88
2021-01-08 21:00:00 0.2 -- -- -- -- 0 -- -- 87
2021-01-08 20:00:00 1.4 -- -- -- -- 0 -- -- 81
2021-01-08 19:00:00 2.7 -- -- -- -- 0 -- -- 73
2021-01-08 18:00:00 4.3 -- -- -- -- 0 -- -- 63
2021-01-08 17:00:00 5.7 -- -- -- -- 0 -- -- 58
2021-01-08 16:00:00 6.3 -- -- -- -- 0 -- -- 54
2021-01-08 15:00:00 7.1 -- -- -- -- 0 -- -- 53
2021-01-08 14:00:00 6 -- -- -- -- 0 -- -- 67
2021-01-08 13:00:00 3.9 -- -- -- -- 0 -- -- 77
2021-01-08 12:00:00 1.3 -- -- -- -- 0 -- -- 90
2021-01-08 11:00:00 -1.6 -- -- -- -- 0 -- -- 100
2021-01-08 10:00:00 -2.4 -- -- -- -- 0 -- -- 100
2021-01-08 09:00:00 -2.6 -- -- -- -- 0 -- -- 100
2021-01-08 08:00:00 -2.3 -- -- -- -- 0 -- -- 100
2021-01-08 07:00:00 -2.1 -- -- -- -- 0 -- -- 100
2021-01-08 06:00:00 -1.8 -- -- -- -- 0 -- -- 100
2021-01-08 05:00:00 -1.7 -- -- -- -- 0 -- -- 100
2021-01-08 04:00:00 -1.5 -- -- -- -- 0 -- -- 99
2021-01-08 03:00:00 -1.2 -- -- -- -- 0 -- -- 99
2021-01-08 02:00:00 -0.8 -- -- -- -- 0 -- -- 99
2021-01-08 01:00:00 -0.4 -- -- -- -- 0 -- -- 99
2021-01-08 00:00:00 -0.1 -- -- -- -- 0 -- -- 99
2021-01-07 23:00:00 0.4 -- -- -- -- 0 -- -- 98
2021-01-07 22:00:00 0.6 -- -- -- -- 0 -- -- 98
2021-01-07 21:00:00 0.7 -- -- -- -- 0 -- -- 98
2021-01-07 20:00:00 1.1 -- -- -- -- 0 -- -- 97
2021-01-07 19:00:00 1.4 -- -- -- -- 0 -- -- 96
2021-01-07 18:00:00 1.1 -- -- -- -- 0 -- -- 95
2021-01-07 17:00:00 1.3 -- -- -- -- 0 -- -- 94
2021-01-07 16:00:00 1.2 -- -- -- -- 0 -- -- 95
2021-01-07 15:00:00 0.7 -- -- -- -- 0 -- -- 98
2021-01-07 14:00:00 0.1 -- -- -- -- 0 -- -- 100
2021-01-07 13:00:00 -0.7 -- -- -- -- 0 -- -- 100
2021-01-07 12:00:00 -1.4 -- -- -- -- 0 -- -- 100
2021-01-07 11:00:00 -2.3 -- -- -- -- 0 -- -- 100
2021-01-07 10:00:00 -2.3 -- -- -- -- 0 -- -- 100
2021-01-07 09:00:00 -2.1 -- -- -- -- 0 -- -- 100
2021-01-07 08:00:00 -2 -- -- -- -- 0 -- -- 100
2021-01-07 07:00:00 -1.9 -- -- -- -- 0 -- -- 100
2021-01-07 06:00:00 -1.8 -- -- -- -- 0 -- -- 100
2021-01-07 05:00:00 -2 -- -- -- -- 0 -- -- 100
2021-01-07 04:00:00 -2.1 -- -- -- -- 0 -- -- 100
2021-01-07 03:00:00 -2.1 -- -- -- -- 0 -- -- 100
2021-01-07 02:00:00 -1.6 -- -- -- -- 0 -- -- 100
2021-01-07 01:00:00 -1.3 -- -- -- -- 0 -- -- 100
2021-01-07 00:00:00 -1.2 -- -- -- -- 0 -- -- 100
2021-01-06 23:00:00 -0.9 -- -- -- -- 0 -- -- 100
2021-01-06 22:00:00 -0.6 -- -- -- -- 0 -- -- 100
2021-01-06 21:00:00 0.2 -- -- -- -- 0 -- -- 99
2021-01-06 20:00:00 0.7 -- -- -- -- 0 -- -- 98
2021-01-06 19:00:00 1.3 -- -- -- -- 0 -- -- 96
2021-01-06 18:00:00 1.7 -- -- -- -- 0 -- -- 94
2021-01-06 17:00:00 2.7 -- -- -- -- 0 -- -- 90
2021-01-06 16:00:00 3.6 -- -- -- -- 0 -- -- 87
2021-01-06 15:00:00 2.8 -- -- -- -- 0 -- -- 87
2021-01-06 14:00:00 2 -- -- -- -- 0 -- -- 95
2021-01-06 13:00:00 1.5 -- -- -- -- 0.2 -- -- 100
2021-01-06 12:00:00 0.2 -- -- -- -- 0 -- -- 100
2021-01-06 11:00:00 -0.5 -- -- -- -- 0 -- -- 100
2021-01-06 10:00:00 -0.9 -- -- -- -- 0 -- -- 100
2021-01-06 09:00:00 -0.8 -- -- -- -- 0 -- -- 100
2021-01-06 08:00:00 -0.9 -- -- -- -- 0 -- -- 100
2021-01-06 07:00:00 -1 -- -- -- -- 0 -- -- 100
2021-01-06 06:00:00 -0.9 -- -- -- -- 0 -- -- 100
2021-01-06 05:00:00 -0.6 -- -- -- -- 0 -- -- 100
2021-01-06 04:00:00 -0.3 -- -- -- -- 0 -- -- 100
2021-01-06 03:00:00 -0.2 -- -- -- -- 0 -- -- 100
2021-01-06 02:00:00 -0.1 -- -- -- -- 0 -- -- 100
2021-01-06 01:00:00 0.3 -- -- -- -- 0 -- -- 99
2021-01-06 00:00:00 1.1 -- -- -- -- 0 -- -- 99
2021-01-05 23:00:00 1.3 -- -- -- -- 0 -- -- 99
2021-01-05 22:00:00 1.2 -- -- -- -- 0 -- -- 98
2021-01-05 21:00:00 1.1 -- -- -- -- 0 -- -- 97
2021-01-05 20:00:00 2.1 -- -- -- -- 0 -- -- 96
2021-01-05 19:00:00 2.3 -- -- -- -- 0 -- -- 94
2021-01-05 18:00:00 3.4 -- -- -- -- 0 -- -- 91
2021-01-05 17:00:00 3.7 -- -- -- -- 0 -- -- 90
2021-01-05 16:00:00 3.8 -- -- -- -- 0 -- -- 91
2021-01-05 15:00:00 3.1 -- -- -- -- 0 -- -- 92
2021-01-05 14:00:00 2.6 -- -- -- -- 0 -- -- 93
2021-01-05 13:00:00 1.3 -- -- -- -- 0 -- -- 99
2021-01-05 12:00:00 0.5 -- -- -- -- 0 -- -- 100
2021-01-05 11:00:00 -0.2 -- -- -- -- 0 -- -- 100
2021-01-05 10:00:00 -0.6 -- -- -- -- 0 -- -- 100
2021-01-05 09:00:00 -0.6 -- -- -- -- 0 -- -- 100
2021-01-05 08:00:00 -0.5 -- -- -- -- 0 -- -- 100
2021-01-05 07:00:00 -0.5 -- -- -- -- 0 -- -- 100
2021-01-05 06:00:00 -0.3 -- -- -- -- 0 -- -- 100
2021-01-05 05:00:00 -0.3 -- -- -- -- 0 -- -- 100
2021-01-05 04:00:00 -0.3 -- -- -- -- 0 -- -- 100
2021-01-05 03:00:00 -0.6 -- -- -- -- 0 -- -- 100
2021-01-05 02:00:00 -0.7 -- -- -- -- 0 -- -- 100
2021-01-05 01:00:00 -1 -- -- -- -- 0 -- -- 100
2021-01-05 00:00:00 -0.9 -- -- -- -- 0 -- -- 99
2021-01-04 23:00:00 -0.9 -- -- -- -- 0 -- -- 98
2021-01-04 22:00:00 -0.2 -- -- -- -- 0 -- -- 98
2021-01-04 21:00:00 -0.5 -- -- -- -- 0 -- -- 96
2021-01-04 20:00:00 0.1 -- -- -- -- 0 -- -- 94
2021-01-04 19:00:00 1.4 -- -- -- -- 0 -- -- 91
2021-01-04 18:00:00 3.6 -- -- -- -- 0 -- -- 84
2021-01-04 17:00:00 4.3 -- -- -- -- 0 -- -- 83
2021-01-04 16:00:00 5.1 -- -- -- -- 0 -- -- 79
2021-01-04 15:00:00 3.9 -- -- -- -- 0 -- -- 88
2021-01-04 14:00:00 4 -- -- -- -- 0 -- -- 86
2021-01-04 13:00:00 3.4 -- -- -- -- 0 -- -- 90
2021-01-04 12:00:00 2.8 -- -- -- -- 0 -- -- 97
2021-01-04 11:00:00 1.8 -- -- -- -- 0 -- -- 100
2021-01-04 10:00:00 1.2 -- -- -- -- 0 -- -- 100
2021-01-04 09:00:00 0.8 -- -- -- -- 0 -- -- 100
2021-01-04 08:00:00 0.9 -- -- -- -- 0 -- -- 100
2021-01-04 07:00:00 0.8 -- -- -- -- 0 -- -- 100
2021-01-04 06:00:00 1 -- -- -- -- 0 -- -- 100
2021-01-04 05:00:00 1.2 -- -- -- -- 0.2 -- -- 100
2021-01-04 04:00:00 0.9 -- -- -- -- 0 -- -- 100
2021-01-04 03:00:00 0.5 -- -- -- -- 0 -- -- 100
2021-01-04 02:00:00 0 -- -- -- -- 0 -- -- 100
2021-01-04 01:00:00 -0.5 -- -- -- -- 0 -- -- 99
2021-01-04 00:00:00 -0.2 -- -- -- -- 0 -- -- 98
2021-01-03 23:00:00 1.3 -- -- -- -- 0 -- -- 98
2021-01-03 22:00:00 1.6 -- -- -- -- 0 -- -- 97
2021-01-03 21:00:00 2.4 -- -- -- -- 0 -- -- 96
2021-01-03 20:00:00 2.8 -- -- -- -- 0 -- -- 96
2021-01-03 19:00:00 3.3 -- -- -- -- 0.2 -- -- 94
2021-01-03 18:00:00 3.8 -- -- -- -- 0 -- -- 93
2021-01-03 17:00:00 4.2 -- -- -- -- 0.4 -- -- 93
2021-01-03 16:00:00 4.4 -- -- -- -- 0.4 -- -- 91
2021-01-03 15:00:00 5.4 -- -- -- -- 0 -- -- 89
2021-01-03 14:00:00 5.8 -- -- -- -- 0 -- -- 83
2021-01-03 13:00:00 5.6 -- -- -- -- 0 -- -- 89
2021-01-03 12:00:00 4.2 -- -- -- -- 0 -- -- 100
2021-01-03 11:00:00 2.6 -- -- -- -- 0.2 -- -- 100
2021-01-03 10:00:00 1.6 -- -- -- -- 0 -- -- 100
2021-01-03 09:00:00 1.2 -- -- -- -- 0 -- -- 100
2021-01-03 08:00:00 1.1 -- -- -- -- 0 -- -- 100
2021-01-03 07:00:00 1 -- -- -- -- 0 -- -- 100
2021-01-03 06:00:00 0.8 -- -- -- -- 0.2 -- -- 100
2021-01-03 05:00:00 0.1 -- -- -- -- 0 -- -- 100
2021-01-03 04:00:00 -0.2 -- -- -- -- 0 -- -- 100
2021-01-03 03:00:00 0.3 -- -- -- -- 0 -- -- 99
2021-01-03 02:00:00 0.6 -- -- -- -- 0 -- -- 99
2021-01-03 01:00:00 1.1 -- -- -- -- 0 -- -- 99
2021-01-03 00:00:00 1.4 -- -- -- -- 0 -- -- 99
2021-01-02 23:00:00 1.8 -- -- -- -- 0 -- -- 98
2021-01-02 22:00:00 2.4 -- -- -- -- 0 -- -- 97
2021-01-02 21:00:00 2.5 -- -- -- -- 0 -- -- 97
2021-01-02 20:00:00 2.8 -- -- -- -- 0 -- -- 96
2021-01-02 19:00:00 3.4 -- -- -- -- 0 -- -- 95
2021-01-02 18:00:00 4.3 -- -- -- -- 0 -- -- 90
2021-01-02 17:00:00 5.1 -- -- -- -- 0 -- -- 88
2021-01-02 16:00:00 5.6 -- -- -- -- 0 -- -- 85
2021-01-02 15:00:00 5 -- -- -- -- 0 -- -- 87
2021-01-02 14:00:00 4.3 -- -- -- -- 0 -- -- 92